weather.gov     
National Weather Service

Regional Weather Roundup
NWS Homepage
This page is being discontinued on March 12, 2014.
The same data is available at this site. Please update your bookmarks.
Thank you, and we apologize for the inconvenience.
Please send an email to SR-SRH.Webmaster@noaa.gov with any concerns.


Current Version
Previous Version:    01  02  03  04  05  06  07  08  09  10  11  12  13  14  15  16  17  18  19  20  21  22  23  24  25  26  
[Printable]
985
ASUS43 KDMX 241307
RWRIA

WEATHER ROUNDUP FOR IOWA
NATIONAL WEATHER SERVICE DES MOINES IA
800 AM CDT THU APR 24 2014

NOTE: "FAIR" INDICATES FEW OR NO CLOUDS BELOW 12,000 FEET WITH NO
SIGNIFICANT WEATHER AND/OR OBSTRUCTIONS TO VISIBILITY.

* - THESE STATIONS ARE NOT NWS STATIONS...THUS NOT UNDER NWS
QUALITY CONTROL.  THEY ALSO DO NOT REPORT WEATHER SUCH
AS PRECIPITATION OR FOG.

IAZ001>003-012>014-020>022-031>034-043>046-241400-
   NORTHWEST IOWA

CITY           SKY/WX    TMP DP  RH WIND       PRES   REMARKS
CARROLL *      CLOUDY    46  45  93 CALM      29.65R
CHEROKEE *     CLOUDY    45  43  93 CALM      29.68R
DENISON *      LGT RAIN  46  45  93 CALM      29.66R
LE MARS *        N/A     46  45  93 E5        29.69R FOG
ORANGE CITY *  DRIZZLE   46  43  87 CALM      29.68R
SHELDON *      MIX PCPN  43  43 100 SE5       29.68R
SIOUX CITY     CLOUDY    48  45  89 E3        29.68R
SPENCER        CLOUDY    44  41  89 E7        29.67R
STORM LAKE *   CLOUDY    45  43  93 SE5       29.68R
$$

IAZ055>058-069>071-079>083-090>094-241400-
   SOUTHWEST IOWA

CITY           SKY/WX    TMP DP  RH WIND       PRES   REMARKS
ATLANTIC *     RAIN      50  48  93 SW9       29.67R
AUDUBON *      RAIN      48  43  81 CALM      29.67R
CLARINDA *     RAIN      52  50  93 W10G17    29.70R
COUNCIL BLFS * CLOUDY    48  48 100 N5        29.61F FOG
CRESTON *      LGT RAIN  54  48  82 SW13      29.68R
HARLAN  *      RAIN      46  46 100 CALM      29.69S
LAMONI         LGT RAIN  53  47  79 SE15G24   29.63F
RED OAK *      RAIN      50  48  93 SE6       29.66F
SHENANDOAH *   RAIN      50  50 100 E12       29.62F
$$

IAZ047>049-059>061-072>074-084-241400-
   CENTRAL IOWA

CITY           SKY/WX    TMP DP  RH WIND       PRES   REMARKS
AMES           CLOUDY    49  42  77 SE13G23   29.64R
ANKENY *       CLOUDY    50  45  81 SE13G23   29.64R
CHARITON *     DRIZZLE   52  45  76 SE15G22   29.66R
DES MOINES     LGT RAIN  52  44  74 SE13      29.64S
GRINNELL*      CLOUDY    48  41  76 SE20G26   29.68F
KNOXVILLE *    CLOUDY    50  43  76 SE14G22   29.65S
MARSHALLTOWN   CLOUDY    47  39  74 SE25G32   29.66F
NEWTON *       PTSUNNY   48  43  81 SE18G26   29.66F
PELLA *        CLOUDY    50  41  71 SE18      29.69S
PERRY *        PTSUNNY   50  45  81 SW3       29.65R
$$

IAZ004>006-015-016-023>025-035-036-241400-
   NORTH CENTRAL IOWA

CITY           SKY/WX    TMP DP  RH WIND       PRES   REMARKS
ALGONA *       CLOUDY    43  41  93 E18       29.68R
CLARION *      CLOUDY    45  41  87 E14       29.67F
ESTHERVILLE    CLOUDY    42  41  96 SE16      29.66R FOG
FORT DODGE *   CLOUDY    46  39  76 E10       29.67R
MASON CITY     CLOUDY    42  39  89 E17       29.72F
FOREST CITY *  CLOUDY    43  39  87 E18G25    29.69F
IOWA FALLS *   LGT RAIN  45  41  87 E14       29.68F
$$

IAZ007>011-017>019-026>030-037>042-050>054-066-241400-
   NORTHEAST IOWA

CITY           SKY/WX    TMP DP  RH WIND       PRES   REMARKS
CEDAR RAPIDS   PTSUNNY   50  37  61 SE17G25   29.75F
CHARLES CITY * CLOUDY    43  37  81 SE24G31   29.75S
CLINTON *      CLOUDY    46  36  66 SE21G30   29.88S
DECORAH *      LGT RAIN  39  39 100 E18       29.80S WCI  30
DUBUQUE        CLOUDY    45  35  68 SE18G26   29.84F
MONTICELLO *   CLOUDY    46  37  71 SE18G35   29.79F
OELWEIN *      MIX PCPN N/A N/A N/A E16G23    29.77S
WATERLOO       CLOUDY    43  39  86 SE16      29.72F
$$

IAZ064-065-067-068-078-241400-
   EAST CENTRAL IOWA

CITY           SKY/WX    TMP DP  RH WIND       PRES   REMARKS
DAVENPORT      PTSUNNY   48  37  65 SE22G30   29.84F
IOWA CITY      PTSUNNY   50  39  66 SE14      29.79F
MT. PLEASANT * PTSUNNY   54  34  47 SE16      29.78F
MUSCATINE *    PTSUNNY   52  37  58 SE14G22   29.80F
QUAD CITIES    PTSUNNY   49  38  65 SE15      29.85F
$$

IAZ062-063-075>077-085>089-095>099-241400-
   SOUTHEAST IOWA

CITY           SKY/WX    TMP DP  RH WIND       PRES   REMARKS
BURLINGTON     PTSUNNY   53  34  48 SE13      29.82R
FAIRFIELD *    MOSUNNY   52  34  50 SE24G31   29.75F
FORT MADISON * PTSUNNY   54  36  50 SE17G28   29.80F
KEOKUK *       MOSUNNY   54  36  50 SE17G24   29.78F
OSKALOOSA *    LGT RAIN  48  41  76 SE20      29.72S
CENTERVILLE *  MOSUNNY   52  43  71 SE15      29.71S
OTTUMWA        HVY RAIN  46  41  82 SE17      29.71F
WASHINGTON *   MOSUNNY   52  37  58 SE18G26   29.76F
$$

ABBREVIATIONS USED IN REMARKS
   TC - TEMPERATURES IN CELSIUS
  WCI - WIND CHILL INDEX
   HX - HEAT INDEX
  VSB - VISIBILITY
$$





U.S. Dept. of Commerce
NOAA National Weather Service
1325 East West Highway
Silver Spring, MD 20910
E-mail: w-nws.webmaster@noaa.gov
Page last modified: May 16, 2007
NATIONAL WEATHER SERVICE: for Safety, for Work, for Fun - FOR LIFE